User: anonymous   Login
Location: Santa Clara
(37.3540°N, 121.9540°W)
Time: 23:48:23
(UTC-07:00)
Language:

ISS - Orbit

View from above orbital plane
View from above orbital plane
View from above satellite
View from above satellite

Ground track
Ground track

The orbit data is extracted from the following two-line orbital elements,

1 25544U 98067A   24168.56180588  .00013580  00000-0  25005-3 0  9994
2 25544  51.6405 318.3662 0010441 334.1523  70.8721 15.49431393458456
Epoch (UTC): 16 June 2024 13:29:00
Eccentricity: 0.0010441
inclination: 51.6405°
perigee height: 411 km
apogee height: 425 km
right ascension of ascending node: 318.3662°
argument of perigee: 334.1523°
revolutions per day: 15.49431393
mean anomaly at epoch: 70.8721°
orbit number at epoch: 45845

The dashed part of the orbit path shows where the satellite is in the earth's shadow,  

DLR